Location: Grand Lay
(47.3253°N, 0.9468°E)
Time: 22:51:29
(UTC+00:00)

Cosmos 1953 - Pass Details

Date: 18 January 2026
Orbit: 474 x 489 km, 82.5° (Epoch: 15 February)

Event Time Altitude Azimuth Distance (km) Brightness Sun altitude
Rises 06:29:56 0° 189° (S) 2,535 5.8 -11.1°
Reaches altitude 10° 06:32:01 10° 190° (S) 1,664 4.9 -10.8°
Maximum altitude 06:35:39 85° 276° (W) 496 2.0 -10.2°
Drops below altitude 10° 06:39:22 10° 8° (N) 1,690 4.7 -9.6°
Sets 06:41:29 0° 9° (N) 2,579 5.6 -9.3°
